sat.trackr.live / text

‹ back to catalog

STARLINK-37657

NORAD 69145 · 2026-110X

PAYLOAD ACTIVE UNKNOWN

§ Identity

Operator
Country
US
Launch date
2026-05-20
Launch site
AFWTR
Launch vehicle
Mass (kg)
RCS (m²)

Purposes: comms

External: N2YO · Heavens-Above · Gunter

§ Orbital elements

Epoch: 2026-09-20T00:00:38.116224Z

Period
93.91 min
Inclination
97.2840°
Eccentricity
0.0001655
Mean motion
15.33453314 rev/d
Perigee alt
464.4 km
Apogee alt
466.7 km
Semi-major
6,843.7 km
B*
5.2998e-4
RAAN
98.1284°
Arg perigee
90.9629°
Mean anomaly
269.1803°
Rev number
2,014

§ Raw data

STARLINK-376571 69145U 26110X   26263.00044116  .00017078  00000+0  52998-3 0  99982 69145  97.2840  98.1284 0001655  90.9629 269.1803 15.33453314 20149

JSON: /api/v1/satellites/69145 · /tle

For live sub-satellite position, see the globe view (requires WebGL).

§ Visibility from observer

Set your observer location to see the next 7 days of passes ≥ 10°. The values pass through the URL so the page stays shareable.

No JS? Fill the form by hand. The geolocation button needs JavaScript.